| time (UTC) | temp C | wind direction | speed KPH | gust KPH | rain 1hr cm | rain 24hr cm | rain mn cm | humidity % | barometer mb |
| 20260504012506 | 15 | 222 | 0.0 | 0.0 | 0.00 | 0.00 | 0.00 | 68 | 1007.2 |
| 20260504012004 | 15 | 223 | 0.0 | 0.0 | 0.00 | 0.00 | 0.00 | 68 | 1007.3 |
| 20260504011500 | 15 | 223 | 0.0 | 0.0 | 0.00 | 0.00 | 0.00 | 66 | 1007.0 |
| 20260504010955 | 15 | 223 | 0.0 | 0.0 | 0.00 | 0.00 | 0.00 | 66 | 1007.0 |
| 20260504010452 | 16 | 223 | 0.0 | 0.0 | 0.00 | 0.00 | 0.00 | 64 | 1007.2 |
| 20260504005948 | 16 | 223 | 0.0 | 0.0 | 0.00 | 0.00 | 0.00 | 63 | 1007.2 |
| 20260504005445 | 16 | 223 | 0.0 | 0.0 | 0.00 | 0.00 | 0.00 | 62 | 1007.1 |
| 20260504004943 | 16 | 224 | 0.0 | 0.0 | 0.00 | 0.00 | 0.00 | 61 | 1007.1 |
| 20260504004440 | 17 | 224 | 0.0 | 0.0 | 0.00 | 0.00 | 0.00 | 60 | 1007.0 |
| 20260504003937 | 17 | 226 | 0.0 | 0.0 | 0.00 | 0.00 | 0.00 | 58 | 1007.0 |
| 20260504003433 | 18 | 229 | 0.0 | 0.0 | 0.00 | 0.00 | 0.00 | 56 | 1006.9 |
| 20260504002930 | 18 | 230 | 0.0 | 0.0 | 0.00 | 0.00 | 0.00 | 54 | 1007.0 |
| 20260504002427 | 18 | 231 | 0.0 | 0.0 | 0.00 | 0.00 | 0.00 | 54 | 1006.8 |
| 20260504001924 | 18 | 232 | 1.6 | 4.8 | 0.00 | 0.00 | 0.00 | 53 | 1006.9 |
| 20260504001422 | 18 | 239 | 1.6 | 4.8 | 0.00 | 0.00 | 0.00 | 53 | 1006.9 |
| 20260504000918 | 18 | 234 | 0.0 | 4.8 | 0.00 | 0.00 | 0.00 | 52 | 1007.1 |
| 20260504000416 | 19 | 237 | 3.2 | 9.7 | 0.00 | 0.00 | 0.00 | 53 | 1006.8 |
| 20260503235913 | 19 | 244 | 4.8 | 9.7 | 0.00 | 0.00 | 0.00 | 52 | 1007.0 |
| 20260503235410 | 19 | 238 | 4.8 | 9.7 | 0.00 | 0.00 | 0.00 | 52 | 1007.1 |
| 20260503234908 | 19 | 236 | 3.2 | 4.8 | 0.00 | 0.00 | 0.00 | 54 | 1006.9 |
| 20260503234405 | 19 | 239 | 0.0 | 4.8 | 0.00 | 0.00 | 0.00 | 54 | 1006.9 |
| 20260503233903 | 20 | 253 | 4.8 | 9.7 | 0.00 | 0.00 | 0.00 | 51 | 1007.1 |
| 20260503233359 | 20 | 240 | 4.8 | 9.7 | 0.00 | 0.00 | 0.00 | 52 | 1007.0 |
| 20260503232855 | 20 | 248 | 4.8 | 4.8 | 0.00 | 0.00 | 0.00 | 52 | 1007.3 |
| 20260503232353 | 20 | 252 | 4.8 | 9.7 | 0.00 | 0.00 | 0.00 | 52 | 1007.0 |
| 20260503231851 | 20 | 255 | 6.4 | 9.7 | 0.00 | 0.00 | 0.00 | 51 | 1007.1 |
| 20260503231347 | 20 | 249 | 4.8 | 9.7 | 0.00 | 0.00 | 0.00 | 51 | 1007.0 |
| 20260503230843 | 20 | 270 | 4.8 | 9.7 | 0.00 | 0.00 | 0.00 | 52 | 1007.2 |
| 20260503230340 | 20 | 250 | 4.8 | 9.7 | 0.00 | 0.00 | 0.00 | 51 | 1007.1 |
| 20260503225839 | 20 | 145 | 6.4 | 12.9 | 0.00 | 0.00 | 0.00 | 51 | 1007.3 |
| 20260503225334 | 20 | 174 | 8.0 | 12.9 | 0.00 | 0.00 | 0.00 | 52 | 1007.5 |
| 20260503224830 | 20 | 137 | 4.8 | 9.7 | 0.00 | 0.00 | 0.00 | 50 | 1007.1 |
| 20260503224328 | 20 | 146 | 8.0 | 12.9 | 0.00 | 0.00 | 0.00 | 50 | 1007.1 |
| 20260503223825 | 20 | 118 | 6.4 | 9.7 | 0.00 | 0.00 | 0.00 | 52 | 1007.4 |
| 20260503223323 | 20 | 151 | 6.4 | 12.9 | 0.00 | 0.00 | 0.00 | 52 | 1007.3 |
| 20260503222818 | 20 | 176 | 11.3 | 12.9 | 0.00 | 0.00 | 0.00 | 51 | 1007.6 |
| 20260503222317 | 20 | 135 | 6.4 | 12.9 | 0.00 | 0.00 | 0.00 | 52 | 1007.5 |
| 20260503221815 | 20 | 119 | 4.8 | 9.7 | 0.00 | 0.00 | 0.00 | 51 | 1007.6 |
| 20260503221313 | 20 | 167 | 9.7 | 12.9 | 0.00 | 0.00 | 0.00 | 51 | 1007.6 |
| 20260503220809 | 20 | 163 | 11.3 | 12.9 | 0.00 | 0.00 | 0.00 | 52 | 1007.6 |
| 20260503220306 | 20 | 123 | 4.8 | 9.7 | 0.00 | 0.00 | 0.00 | 52 | 1007.4 |
| 20260503215802 | 20 | 177 | 9.7 | 12.9 | 0.00 | 0.00 | 0.00 | 51 | 1007.5 |
| 20260503215259 | 20 | 130 | 3.2 | 9.7 | 0.00 | 0.00 | 0.00 | 53 | 1007.2 |
| 20260503214757 | 20 | 143 | 8.0 | 17.7 | 0.00 | 0.00 | 0.00 | 51 | 1007.6 |
| 20260503214254 | 20 | 187 | 11.3 | 12.9 | 0.00 | 0.00 | 0.00 | 50 | 1007.4 |
| 20260503213752 | 20 | 135 | 6.4 | 17.7 | 0.00 | 0.00 | 0.00 | 51 | 1007.8 |
| 20260503213249 | 20 | 125 | 4.8 | 12.9 | 0.00 | 0.00 | 0.00 | 51 | 1007.8 |
| 20260503212746 | 20 | 128 | 4.8 | 9.7 | 0.00 | 0.00 | 0.00 | 54 | 1007.7 |
| 20260503212244 | 20 | 177 | 14.5 | 22.5 | 0.00 | 0.00 | 0.00 | 51 | 1007.7 |
| 20260503211741 | 20 | 135 | 6.4 | 12.9 | 0.00 | 0.00 | 0.00 | 53 | 1007.8 |
| 20260503211237 | 20 | 159 | 8.0 | 12.9 | 0.00 | 0.00 | 0.00 | 52 | 1008.1 |
| 20260503210732 | 20 | 128 | 6.4 | 12.9 | 0.00 | 0.00 | 0.00 | 52 | 1008.1 |
| 20260503210230 | 20 | 120 | 1.6 | 12.9 | 0.00 | 0.00 | 0.00 | 53 | 1008.0 |
| 20260503205726 | 20 | 157 | 11.3 | 12.9 | 0.00 | 0.00 | 0.00 | 51 | 1008.1 |
| 20260503205222 | 20 | 188 | 12.9 | 12.9 | 0.00 | 0.00 | 0.00 | 52 | 1008.3 |
| 20260503204718 | 19 | 137 | 8.0 | 12.9 | 0.00 | 0.00 | 0.00 | 52 | 1008.2 |
| 20260503204216 | 19 | 115 | 6.4 | 12.9 | 0.00 | 0.00 | 0.00 | 52 | 1008.2 |
| 20260503203713 | 19 | 131 | 8.0 | 9.7 | 0.00 | 0.00 | 0.00 | 54 | 1008.4 |
| 20260503203211 | 19 | 169 | 12.9 | 17.7 | 0.00 | 0.00 | 0.00 | 50 | 1008.5 |
| 20260503202708 | 18 | 94 | 9.7 | 17.7 | 0.00 | 0.00 | 0.00 | 53 | 1008.6 |
| 20260503202206 | 18 | 137 | 9.7 | 12.9 | 0.00 | 0.00 | 0.00 | 55 | 1008.5 |
| 20260503201703 | 18 | 133 | 4.8 | 12.9 | 0.00 | 0.00 | 0.00 | 57 | 1009.0 |
| 20260503201201 | 18 | 115 | 4.8 | 12.9 | 0.00 | 0.00 | 0.00 | 59 | 1009.0 |
| 20260503200657 | 18 | 120 | 3.2 | 9.7 | 0.00 | 0.00 | 0.00 | 60 | 1009.0 |
| 20260503200153 | 17 | 148 | 11.3 | 17.7 | 0.00 | 0.00 | 0.00 | 60 | 1009.4 |
| 20260503195650 | 17 | 118 | 6.4 | 9.7 | 0.00 | 0.00 | 0.00 | 61 | 1009.2 |
| 20260503195147 | 17 | 156 | 8.0 | 17.7 | 0.00 | 0.00 | 0.00 | 61 | 1009.4 |
| 20260503194644 | 18 | 131 | 6.4 | 12.9 | 0.00 | 0.00 | 0.00 | 59 | 1009.7 |
| 20260503194139 | 17 | 213 | 8.0 | 27.4 | 0.00 | 0.00 | 0.00 | 58 | 1009.9 |
| 20260503193637 | 17 | 242 | 11.3 | 22.5 | 0.00 | 0.00 | 0.00 | 59 | 1009.9 |
| 20260503193132 | 17 | 237 | 9.7 | 27.4 | 0.00 | 0.00 | 0.00 | 57 | 1010.1 |
| 20260503192628 | 17 | 217 | 11.3 | 27.4 | 0.00 | 0.00 | 0.00 | 57 | 1009.9 |
| 20260503192124 | 17 | 248 | 14.5 | 22.5 | 0.00 | 0.00 | 0.00 | 55 | 1010.1 |
| 20260503191621 | 18 | 258 | 14.5 | 27.4 | 0.00 | 0.00 | 0.00 | 53 | 1010.0 |
| 20260503191118 | 17 | 244 | 16.1 | 22.5 | 0.00 | 0.00 | 0.00 | 54 | 1010.2 |
| 20260503190615 | 18 | 224 | 14.5 | 22.5 | 0.00 | 0.00 | 0.00 | 52 | 1010.1 |
| 20260503190112 | 18 | 209 | 11.3 | 17.7 | 0.00 | 0.00 | 0.00 | 53 | 1010.2 |
| 20260503185608 | 18 | 195 | 9.7 | 22.5 | 0.00 | 0.00 | 0.00 | 53 | 1010.0 |
| 20260503185108 | 18 | 205 | 11.3 | 17.7 | 0.00 | 0.00 | 0.00 | 53 | 1010.1 |
| 20260503184604 | 18 | 232 | 9.7 | 27.4 | 0.00 | 0.00 | 0.00 | 53 | 1010.2 |
| 20260503184101 | 18 | 266 | 11.3 | 17.7 | 0.00 | 0.00 | 0.00 | 54 | 1010.2 |
| 20260503183557 | 18 | 182 | 6.4 | 22.5 | 0.00 | 0.00 | 0.00 | 53 | 1010.0 |
| 20260503183055 | 18 | 211 | 6.4 | 22.5 | 0.00 | 0.00 | 0.00 | 54 | 1010.3 |
| 20260503182553 | 18 | 178 | 4.8 | 17.7 | 0.00 | 0.00 | 0.00 | 55 | 1010.6 |
| 20260503182051 | 17 | 208 | 6.4 | 12.9 | 0.00 | 0.00 | 0.00 | 54 | 1010.4 |
| 20260503181547 | 17 | 248 | 9.7 | 12.9 | 0.00 | 0.00 | 0.00 | 56 | 1010.1 |
| 20260503181044 | 17 | 214 | 9.7 | 12.9 | 0.00 | 0.00 | 0.00 | 55 | 1010.5 |
| 20260503180541 | 17 | 144 | 8.0 | 17.7 | 0.00 | 0.00 | 0.00 | 56 | 1010.5 |
| 20260503180038 | 17 | 212 | 6.4 | 12.9 | 0.00 | 0.00 | 0.00 | 57 | 1010.7 |
| 20260503175535 | 17 | 203 | 8.0 | 17.7 | 0.00 | 0.00 | 0.00 | 57 | 1010.5 |
| 20260503175033 | 17 | 210 | 6.4 | 17.7 | 0.00 | 0.00 | 0.00 | 58 | 1010.8 |
| 20260503174530 | 16 | 145 | 8.0 | 9.7 | 0.00 | 0.00 | 0.00 | 61 | 1010.9 |
| 20260503174026 | 16 | 171 | 4.8 | 17.7 | 0.00 | 0.00 | 0.00 | 65 | 1011.0 |
| 20260503173521 | 16 | 272 | 6.4 | 12.9 | 0.00 | 0.00 | 0.00 | 63 | 1011.1 |
| 20260503173017 | 15 | 188 | 0.0 | 12.9 | 0.00 | 0.00 | 0.00 | 65 | 1011.2 |
| 20260503172516 | 15 | 184 | 3.2 | 12.9 | 0.00 | 0.00 | 0.00 | 64 | 1011.5 |
| 20260503172012 | 15 | 186 | 8.0 | 17.7 | 0.00 | 0.00 | 0.00 | 67 | 1011.5 |
| 20260503171509 | 15 | 233 | 11.3 | 17.7 | 0.00 | 0.00 | 0.00 | 64 | 1011.8 |
| 20260503171006 | 15 | 173 | 4.8 | 9.7 | 0.00 | 0.00 | 0.00 | 68 | 1011.6 |
| 20260503170502 | 14 | 190 | 6.4 | 17.7 | 0.00 | 0.00 | 0.00 | 65 | 1011.8 |
| 20260503150855 | 12 | 267 | 9.7 | 17.7 | 0.00 | 0.00 | 0.00 | 69 | 1013.7 |
| 20260503150351 | 12 | 184 | 1.6 | 9.7 | 0.00 | 0.00 | 0.00 | 68 | 1013.4 |
| 20260503140315 | 13 | 203 | 6.4 | 12.9 | 0.00 | 0.00 | 0.00 | 61 | 1013.9 |
| 20260503131244 | 12 | 248 | 12.9 | 12.9 | 0.00 | 0.00 | 0.00 | 63 | 1014.6 |
| 20260503130742 | 11 | 181 | 6.4 | 9.7 | 0.00 | 0.00 | 0.00 | 64 | 1014.4 |
| 20260503130239 | 11 | 205 | 6.4 | 12.9 | 0.00 | 0.00 | 0.00 | 64 | 1014.5 |
| 20260503120205 | 10 | 180 | 3.2 | 4.8 | 0.00 | 0.00 | 0.00 | 64 | 1014.5 |
| 20260503110633 | 9 | 184 | 4.8 | 12.9 | 0.00 | 0.00 | 0.00 | 62 | 1014.2 |
| 20260503110130 | 9 | 179 | 4.8 | 9.7 | 0.00 | 0.00 | 0.00 | 63 | 1014.2 |
| 20260503081440 | 8 | 179 | 3.2 | 4.8 | 0.00 | 0.00 | 0.00 | 64 | 1015.6 |
| 20260503080937 | 8 | 172 | 0.0 | 4.8 | 0.00 | 0.00 | 0.00 | 63 | 1015.4 |
| 20260503080433 | 8 | 171 | 0.0 | 0.0 | 0.00 | 0.00 | 0.00 | 63 | 1015.6 |
| 20260503072910 | 8 | 181 | 4.8 | 9.7 | 0.00 | 0.00 | 0.00 | 61 | 1015.7 |
| 20260503072408 | 8 | 169 | 0.0 | 4.8 | 0.00 | 0.00 | 0.00 | 63 | 1016.0 |
| 20260503071904 | 8 | 172 | 0.0 | 4.8 | 0.00 | 0.00 | 0.00 | 61 | 1015.5 |
| 20260503071402 | 8 | 178 | 1.6 | 4.8 | 0.00 | 0.00 | 0.00 | 61 | 1015.7 |
| 20260503070857 | 8 | 179 | 1.6 | 4.8 | 0.00 | 0.00 | 0.00 | 60 | 1015.8 |
| 20260503070355 | 8 | 181 | 4.8 | 4.8 | 0.00 | 0.00 | 0.00 | 60 | 1015.6 |
| 20260503060320 | 8 | 183 | 1.6 | 4.8 | 0.00 | 0.00 | 0.00 | 59 | 1016.3 |
| 20260503054808 | 8 | 178 | 1.6 | 4.8 | 0.00 | 0.00 | 0.00 | 59 | 1016.3 |
| 20260503054304 | 8 | 173 | 1.6 | 4.8 | 0.00 | 0.00 | 0.00 | 59 | 1016.6 |
| 20260503053802 | 8 | 175 | 1.6 | 4.8 | 0.00 | 0.00 | 0.00 | 59 | 1016.5 |
| 20260503053301 | 8 | 169 | 0.0 | 4.8 | 0.00 | 0.00 | 0.00 | 59 | 1016.4 |
| 20260503052756 | 8 | 171 | 1.6 | 4.8 | 0.00 | 0.00 | 0.00 | 60 | 1016.7 |
| 20260503052253 | 8 | 168 | 0.0 | 0.0 | 0.00 | 0.00 | 0.00 | 60 | 1016.4 |
| 20260503051749 | 8 | 173 | 3.2 | 4.8 | 0.00 | 0.00 | 0.00 | 60 | 1016.5 |
| 20260503051246 | 8 | 178 | 3.2 | 4.8 | 0.00 | 0.00 | 0.00 | 59 | 1016.5 |
| 20260503050742 | 8 | 175 | 1.6 | 9.7 | 0.00 | 0.00 | 0.00 | 59 | 1016.8 |
| 20260503050239 | 8 | 190 | 4.8 | 4.8 | 0.00 | 0.00 | 0.00 | 59 | 1016.5 |
| 20260503045736 | 8 | 176 | 1.6 | 4.8 | 0.00 | 0.00 | 0.00 | 59 | 1016.7 |
| 20260503045234 | 8 | 174 | 0.0 | 4.8 | 0.00 | 0.00 | 0.00 | 60 | 1016.8 |
| 20260503044730 | 8 | 167 | 0.0 | 0.0 | 0.00 | 0.00 | 0.00 | 60 | 1016.8 |
| 20260503044228 | 8 | 173 | 1.6 | 4.8 | 0.00 | 0.00 | 0.00 | 59 | 1016.8 |
| 20260503043724 | 8 | 182 | 1.6 | 4.8 | 0.00 | 0.00 | 0.00 | 60 | 1016.9 |
| 20260503043222 | 8 | 169 | 0.0 | 0.0 | 0.00 | 0.00 | 0.00 | 61 | 1016.6 |
| 20260503042718 | 8 | 171 | 0.0 | 4.8 | 0.00 | 0.00 | 0.00 | 62 | 1016.7 |
| 20260503042215 | 8 | 166 | 0.0 | 0.0 | 0.00 | 0.00 | 0.00 | 62 | 1016.9 |
| 20260503041710 | 8 | 166 | 0.0 | 4.8 | 0.00 | 0.00 | 0.00 | 62 | 1016.9 |
| 20260503041209 | 8 | 180 | 0.0 | 4.8 | 0.00 | 0.00 | 0.00 | 62 | 1016.8 |
| 20260503040706 | 8 | 165 | 0.0 | 0.0 | 0.00 | 0.00 | 0.00 | 62 | 1016.9 |
| 20260503040203 | 8 | 164 | 0.0 | 0.0 | 0.00 | 0.00 | 0.00 | 63 | 1016.9 |
| 20260503035659 | 8 | 169 | 0.0 | 0.0 | 0.00 | 0.00 | 0.00 | 63 | 1017.1 |
| 20260503035157 | 8 | 165 | 0.0 | 4.8 | 0.00 | 0.00 | 0.00 | 63 | 1017.2 |
| 20260503034654 | 8 | 164 | 0.0 | 0.0 | 0.00 | 0.00 | 0.00 | 64 | 1017.1 |
| 20260503034151 | 8 | 164 | 0.0 | 0.0 | 0.00 | 0.00 | 0.00 | 64 | 1017.1 |
| 20260503033649 | 8 | 164 | 0.0 | 0.0 | 0.00 | 0.00 | 0.00 | 64 | 1017.2 |
| 20260503033146 | 8 | 162 | 0.0 | 0.0 | 0.00 | 0.00 | 0.00 | 64 | 1017.3 |
| 20260503032644 | 8 | 162 | 0.0 | 0.0 | 0.00 | 0.00 | 0.00 | 64 | 1017.1 |
| 20260503032143 | 8 | 162 | 0.0 | 0.0 | 0.00 | 0.00 | 0.00 | 64 | 1017.1 |
| 20260503031639 | 8 | 163 | 0.0 | 0.0 | 0.00 | 0.00 | 0.00 | 64 | 1017.5 |
| 20260503031137 | 8 | 163 | 0.0 | 0.0 | 0.00 | 0.00 | 0.00 | 64 | 1017.2 |
| 20260503030633 | 8 | 161 | 0.0 | 0.0 | 0.00 | 0.00 | 0.00 | 65 | 1017.6 |
| 20260503030130 | 8 | 161 | 0.0 | 0.0 | 0.00 | 0.00 | 0.00 | 65 | 1017.4 |
| 20260503025626 | 8 | 161 | 0.0 | 0.0 | 0.00 | 0.00 | 0.00 | 64 | 1017.4 |
| 20260503025125 | 8 | 162 | 0.0 | 0.0 | 0.00 | 0.00 | 0.00 | 64 | 1017.5 |
| 20260503024621 | 8 | 161 | 0.0 | 0.0 | 0.00 | 0.00 | 0.00 | 64 | 1017.5 |
| 20260503024118 | 8 | 160 | 0.0 | 0.0 | 0.00 | 0.00 | 0.00 | 64 | 1017.6 |
| 20260503023615 | 8 | 161 | 0.0 | 0.0 | 0.00 | 0.00 | 0.00 | 63 | 1017.6 |
| 20260503023112 | 8 | 160 | 0.0 | 0.0 | 0.00 | 0.00 | 0.00 | 64 | 1017.4 |
| 20260503022608 | 8 | 160 | 0.0 | 0.0 | 0.00 | 0.00 | 0.00 | 63 | 1017.4 |
| 20260503022103 | 8 | 160 | 0.0 | 0.0 | 0.00 | 0.00 | 0.00 | 63 | 1017.5 |
| 20260503021600 | 8 | 160 | 0.0 | 0.0 | 0.00 | 0.00 | 0.00 | 62 | 1017.4 |
| 20260503021057 | 8 | 160 | 0.0 | 0.0 | 0.00 | 0.00 | 0.00 | 63 | 1017.6 |
| 20260503020554 | 8 | 160 | 0.0 | 0.0 | 0.00 | 0.00 | 0.00 | 62 | 1017.6 |
| 20260503020050 | 8 | 160 | 0.0 | 0.0 | 0.00 | 0.00 | 0.00 | 63 | 1017.4 |
| 20260503015547 | 8 | 160 | 0.0 | 0.0 | 0.00 | 0.00 | 0.00 | 63 | 1017.3 |
| 20260503015045 | 8 | 160 | 0.0 | 0.0 | 0.00 | 0.00 | 0.00 | 62 | 1017.3 |
| 20260503014540 | 8 | 160 | 0.0 | 0.0 | 0.00 | 0.00 | 0.00 | 62 | 1017.3 |
| 20260503014039 | 9 | 160 | 0.0 | 0.0 | 0.00 | 0.00 | 0.00 | 62 | 1017.2 |
| 20260503013535 | 9 | 160 | 0.0 | 0.0 | 0.00 | 0.00 | 0.00 | 61 | 1017.2 |
| 20260503013033 | 9 | 160 | 0.0 | 0.0 | 0.00 | 0.00 | 0.00 | 60 | 1017.3 |